Regional Weather Roundup
Issued by NWS Cleveland, OH

Home | Current Version | Previous Version | Text Only | Print | Product List | Glossary Off
Versions: 1 2 3 4 5 6 7 8 9 10 11 12 13 14 15 16 17 18 19 20 21 22 23 24 25 26 27 28 29 30 31 32 33 34 35 36 37 38 39 40 41 42 43 44 45 46 47 48 49 50

000
ASUS41 KCLE 042202
RWRCLE
OHIO REGIONAL WEATHER ROUNDUP
NATIONAL WEATHER SERVICE CLEVELAND, OH
600 PM EDT TUE AUG 04 2015

NOTE: "FAIR" INDICATES FEW OR NO CLOUDS BELOW 12,000 FEET WITH NO
SIGNIFICANT WEATHER AND/OR OBSTRUCTIONS TO VISIBILITY.

OHZ001>008-015>018-024>027-034-035-043-044-042300-
   NORTHWEST OHIO

CITY           SKY/WX    TMP DP  RH WIND       PRES   REMARKS
DEFIANCE       PTSUNNY   80  57  45 VRB7      29.96R
FINDLAY        MOSUNNY   81  56  42 W16       29.95R
TOLEDO EXPRESS MOSUNNY   79  54  41 W13       29.94S
TOLEDO EXEC    MOSUNNY   81  55  40 W14       29.94S
LIMA           PTSUNNY   77  57  50 W8G17     29.98R
$$

OHZ009>014-019>023-028>033-038-089-042300-
   NORTHEAST OHIO

CITY           SKY/WX    TMP DP  RH WIND       PRES   REMARKS
CLE-HOPKINS    MOSUNNY   80  55  42 W14       29.95F
CLE-LAKEFRONT  SUNNY     79  62  56 NW9       29.92S
CUY CO. ARPT   NOT AVBL
LORAIN-ELYRIA  MOSUNNY   77  57  50 W7        29.95S
ASHTABULA      MOSUNNY   79  54  41 W12G23    29.94S
AKRON-CANTON   MOSUNNY   82  51  34 W12       29.95F
WOOSTER        SUNNY     79  54  41 W10       29.97S
MANSFIELD      MOSUNNY   79  56  45 W9        29.97F
YOUNGSTOWN     MOSUNNY   81  51  35 W12       29.95S
$$

OHZ042-051>053-060>062-070>072-077>081-042300-
  SOUTHWEST OHIO

CITY           SKY/WX    TMP DP  RH WIND       PRES   REMARKS
CINC-COVINGTON CLOUDY    81  61  50 NW12      29.98S
CINC-LUNKEN    CLOUDY    80  63  55 W14       29.97S
HAMILTON       PTSUNNY   80  60  50 VRB5      29.98S
DAYTON         PTSUNNY   80  59  48 NW9       29.99S
WRIGHT-PAT AFB MOSUNNY   81  56  43 NW9       29.97R
DAYTON GENERAL PTSUNNY   81  58  45 W10       29.98S
WILMINGTON     MOSUNNY   81  57  43 NW12G17   29.98S
$$

OHZ036-037-039>041-045>050-054>059-063>069-073>076-082>088-042300-
  CENTRAL AND SOUTHEAST OHIO

CITY           SKY/WX    TMP DP  RH WIND       PRES   REMARKS
COLUMBUS       CLOUDY    83  54  36 W9        29.95S
OSU AIRPORT    MOSUNNY   80  57  45 W10       29.96S
BOLTON FIELD   NOT AVBL
RICKENBACK AFB SUNNY     80  57  44 W6        29.96R
NEWARK         PTSUNNY   82  56  40 SW9       29.96R
MARION         MOSUNNY   80  55  42 NW12      29.97S
LANCASTER      MOSUNNY   81  60  48 W3        29.97R
ZANESVILLE     MOSUNNY   82  52  35 W9        29.96S
NEW PHILLY     MOSUNNY   79  57  46 W8        29.96S
$$


USA.gov is the U.S. government's official web portal to all federal, state and local government web resources and services.